FW5910 Weather Reports


Display with metric or nautical units.
time (UTC)temp
F
wind
direction
speed
MPH
gust
MPH
rain 1hr
in
rain 24hr
in
rain mn
in
humidity
%
barometer
mb
20260505023143 56 59 16.0 22.0 0.00 0.00 0.00 45 1013.3
20260505022645 56 86 15.0 22.0 0.00 0.00 0.00 43 1013.4
20260505022143 56 69 14.0 20.0 0.00 0.00 0.00 45 1013.4
20260505021143 56 71 13.0 17.0 0.00 0.00 0.00 48 1013.2
20260505020144 56 76 13.0 23.0 0.00 0.00 0.00 47 1013.3
20260505015644 57 60 13.0 23.0 0.00 0.00 0.00 44 1013.3
20260505015145 57 96 13.0 21.0 0.00 0.00 0.00 46 1013.3
20260505014644 57 80 13.0 20.0 0.00 0.00 0.00 45 1013.4
20260505014144 57 78 12.0 20.0 0.00 0.00 0.00 44 1013.2
20260505013644 57 76 12.0 23.0 0.00 0.00 0.00 45 1013.2
20260505012640 57 88 14.0 20.0 0.00 0.00 0.00 46 1013.1
20260505012141 58 80 14.0 20.0 0.00 0.00 0.00 45 1013.1
20260505011639 58 95 13.0 20.0 0.00 0.00 0.00 44 1013.2
20260505011140 58 50 12.0 17.0 0.00 0.00 0.00 45 1013.2
20260505010640 58 77 11.0 20.0 0.00 0.00 0.00 44 1013.2
20260505010140 58 69 11.0 20.0 0.00 0.00 0.00 42 1013.0
20260505005639 59 44 12.0 19.0 0.00 0.00 0.00 44 1013.0
20260505005140 59 80 10.0 15.0 0.00 0.00 0.00 44 1013.0
20260505004636 59 70 10.0 15.0 0.00 0.00 0.00 44 1012.9
20260505004137 59 79 10.0 15.0 0.00 0.00 0.00 44 1012.9
20260505003635 59 114 11.0 17.0 0.00 0.00 0.00 45 1012.9
20260505003137 59 55 10.0 17.0 0.00 0.00 0.00 45 1013.1
20260505002637 60 82 8.0 14.0 0.00 0.00 0.00 44 1013.0
20260505002135 60 99 8.0 14.0 0.00 0.00 0.00 46 1013.0
20260505001136 60 89 8.0 14.0 0.00 0.00 0.00 44 1012.9
20260505000636 59 45 8.0 14.0 0.00 0.00 0.00 44 1012.9
20260505000130 59 105 9.0 14.0 0.00 0.00 0.00 43 1012.9
20260504234630 59 124 12.0 18.0 0.00 0.00 0.00 45 1012.9
20260504234130 59 86 11.0 18.0 0.00 0.00 0.00 44 1012.8
20260504233631 60 83 11.0 18.0 0.00 0.00 0.00 44 1012.9
20260504232632 60 46 13.0 23.0 0.00 0.00 0.00 44 1012.9
20260504232131 59 80 13.0 18.0 0.00 0.00 0.00 45 1012.9
20260504231631 60 22 14.0 22.0 0.00 0.00 0.00 46 1013.2
20260504231132 60 30 14.0 22.0 0.00 0.00 0.00 46 1013.1
20260504230631 60 60 13.0 22.0 0.00 0.00 0.00 46 1013.0
20260504230133 60 84 14.0 22.0 0.00 0.00 0.00 46 1013.1
20260504225632 60 13 14.0 21.0 0.00 0.00 0.00 44 1012.9
20260504225129 60 67 12.0 21.0 0.00 0.00 0.00 44 1012.7
20260504224629 60 44 13.0 22.0 0.00 0.00 0.00 45 1013.0
20260504224131 60 84 15.0 22.0 0.00 0.00 0.00 45 1013.1
20260504223629 60 200 15.0 22.0 0.00 0.00 0.00 43 1012.9
20260504223130 60 88 14.0 20.0 0.00 0.00 0.00 46 1012.9
20260504222629 60 11 13.0 19.0 0.00 0.00 0.00 45 1012.9
20260504222129 60 62 13.0 20.0 0.00 0.00 0.00 47 1013.0
20260504221630 60 112 12.0 20.0 0.00 0.00 0.00 43 1012.8
20260504221129 60 77 12.0 19.0 0.00 0.00 0.00 45 1013.1
20260504220117 60 91 12.0 18.0 0.00 0.00 0.00 45 1012.9
20260504215115 60 74 14.0 21.0 0.00 0.00 0.00 44 1012.9
20260504214116 62 75 11.0 17.0 0.00 0.00 0.00 42 1012.9
20260504213615 61 58 11.0 17.0 0.00 0.00 0.00 42 1012.8
20260504213115 61 67 9.0 16.0 0.00 0.00 0.00 41 1012.8
20260504212613 62 72 8.0 15.0 0.00 0.00 0.00 39 1012.7
20260504212112 62 79 8.0 15.0 0.00 0.00 0.00 41 1012.6
20260504211610 62 97 7.0 13.0 0.00 0.00 0.00 40 1012.7
20260504211107 62 70 6.0 12.0 0.00 0.00 0.00 40 1012.7
20260504210607 62 95 7.0 13.0 0.00 0.00 0.00 41 1012.7
20260504210106 62 18 9.0 13.0 0.00 0.00 0.00 43 1012.8
20260504205605 62 83 10.0 16.0 0.00 0.00 0.00 41 1012.7
20260504205105 62 86 9.0 16.0 0.00 0.00 0.00 41 1012.8
20260504204606 63 52 5.0 12.0 0.00 0.00 0.00 39 1012.9
20260504204105 63 69 3.0 8.0 0.00 0.00 0.00 38 1012.8
20260504203605 63 338 2.0 8.0 0.00 0.00 0.00 37 1012.7
20260504203102 63 38 4.0 9.0 0.00 0.00 0.00 40 1012.7
20260504202601 63 55 4.0 10.0 0.00 0.00 0.00 42 1012.7
20260504201601 62 72 7.0 11.0 0.00 0.00 0.00 42 1012.8
20260504201101 62 74 7.0 11.0 0.00 0.00 0.00 44 1012.9
20260504200601 62 51 5.0 11.0 0.00 0.00 0.00 42 1012.9
20260504200101 62 73 5.0 11.0 0.00 0.00 0.00 43 1012.8
20260504195601 62 140 6.0 12.0 0.00 0.00 0.00 42 1012.8
20260504194603 62 37 7.0 14.0 0.00 0.00 0.00 38 1012.9
20260504194101 64 70 5.0 9.0 0.00 0.00 0.00 43 1012.7
20260504193602 64 36 4.0 9.0 0.00 0.00 0.00 40 1012.8
20260504193102 64 317 5.0 12.0 0.00 0.00 0.00 40 1012.9
20260504192602 63 121 7.0 12.0 0.00 0.00 0.00 38 1012.8
20260504192101 63 82 7.0 13.0 0.00 0.00 0.00 39 1012.9
20260504191600 63 74 5.0 13.0 0.00 0.00 0.00 39 1013.1
20260504191103 64 86 4.0 11.0 0.00 0.00 0.00 39 1013.0
20260504190601 63 78 4.0 10.0 0.00 0.00 0.00 40 1013.0
20260504190105 63 109 5.0 10.0 0.00 0.00 0.00 41 1013.2
20260504185102 62 28 6.0 13.0 0.00 0.00 0.00 40 1013.2
20260504184600 62 48 4.0 11.0 0.00 0.00 0.00 40 1013.3
20260504184101 62 101 5.0 11.0 0.00 0.00 0.00 39 1013.2
20260504183102 61 67 8.0 13.0 0.00 0.00 0.00 41 1013.3
20260504182601 61 80 8.0 13.0 0.00 0.00 0.00 41 1013.4
20260504182101 61 103 9.0 15.0 0.00 0.00 0.00 43 1013.4
20260504181603 61 296 8.0 15.0 0.00 0.00 0.00 44 1013.4
20260504181102 61 74 7.0 12.0 0.00 0.00 0.00 42 1013.3
20260504175602 61 42 8.0 14.0 0.00 0.00 0.00 44 1013.4
20260504175059 60 56 10.0 14.0 0.00 0.00 0.00 43 1013.3
20260504174554 61 65 8.0 13.0 0.00 0.00 0.00 42 1013.3
20260504174048 61 55 4.0 13.0 0.00 0.00 0.00 44 1013.3
20260504173542 62 73 2.0 6.0 0.00 0.00 0.00 43 1013.3
20260504173035 61 67 1.0 6.0 0.00 0.00 0.00 42 1013.3
20260504172533 62 76 2.0 8.0 0.00 0.00 0.00 44 1013.3
20260504172034 60 267 3.0 9.0 0.00 0.00 0.00 42 1013.3
20260504171535 60 271 2.0 9.0 0.00 0.00 0.00 41 1013.3
20260504171033 61 194 2.0 4.0 0.00 0.00 0.00 41 1013.3
20260504151033 57 100 7.0 13.0 0.00 0.00 0.00 47 1013.4
20260504150533 56 23 8.0 14.0 0.00 0.00 0.00 47 1013.3
20260504140532 55 89 12.0 21.0 0.00 0.00 0.00 48 1013.1
20260504130531 54 86 13.0 22.0 0.00 0.00 0.00 48 1012.7
20260504110525 56 78 16.0 22.0 0.00 0.00 0.00 45 1012.1
20260504100517 57 11 12.0 23.0 0.00 0.00 0.00 43 1011.9
20260504081504 60 62 9.0 22.0 0.00 0.00 0.00 45 1010.3
20260504081005 59 89 7.0 17.0 0.00 0.00 0.00 48 1010.0
20260504050444 55 30 0.0 0.0 0.00 0.00 0.00 62 1008.6
20260504045943 56 30 0.0 1.0 0.00 0.00 0.00 64 1008.5
20260504045443 56 30 0.0 1.0 0.00 0.00 0.00 64 1008.6
20260504044943 56 30 0.0 1.0 0.00 0.00 0.00 65 1008.5
20260504044439 57 30 0.0 0.0 0.00 0.00 0.00 65 1008.5
20260504043939 58 30 0.0 0.0 0.00 0.00 0.00 58 1008.5
20260504043444 58 30 0.0 0.0 0.00 0.00 0.00 55 1008.4
20260504042941 59 30 0.0 0.0 0.00 0.00 0.00 54 1008.4
20260504042442 59 30 0.0 1.0 0.00 0.00 0.00 53 1008.4
20260504041942 60 30 0.0 1.0 0.00 0.00 0.00 52 1008.4
20260504041440 60 30 0.0 1.0 0.00 0.00 0.00 56 1008.4
20260504040939 61 30 0.0 1.0 0.00 0.00 0.00 55 1008.4
20260504040439 61 30 0.0 1.0 0.00 0.00 0.00 55 1008.5
20260504035438 62 30 0.0 2.0 0.00 0.00 0.00 49 1008.5
20260504034940 62 30 0.0 2.0 0.00 0.00 0.00 49 1008.4
20260504034439 62 302 0.0 2.0 0.00 0.00 0.00 48 1008.4
20260504033941 62 233 0.0 2.0 0.00 0.00 0.00 48 1008.3
20260504033440 62 227 0.0 1.0 0.00 0.00 0.00 51 1008.3
20260504032434 62 217 0.0 1.0 0.00 0.00 0.00 52 1008.3
20260504031934 62 217 0.0 1.0 0.00 0.00 0.00 52 1008.2
20260504030934 62 217 0.0 1.0 0.00 0.00 0.00 53 1008.1
20260504030434 63 205 0.0 1.0 0.00 0.00 0.00 52 1008.2
20260504025434 64 206 0.0 1.0 0.00 0.00 0.00 49 1008.2
20260504024935 65 200 0.0 0.0 0.00 0.00 0.00 50 1008.1
20260504024430 65 200 0.0 0.0 0.00 0.00 0.00 50 1008.2
20260504023929 66 198 0.0 0.0 0.00 0.00 0.00 48 1008.1
20260504023429 66 196 0.0 0.0 0.00 0.00 0.00 47 1008.1